SM2GSR-2 Weather Reports


time (UTC)temp
F
wind
direction
speed
knots
gust
knots
rain 1hr
in
rain 24hr
in
rain mn
in
humidity
%
barometer
mb
20260904184004 52 30 0.0 0.0 0.00 0.20 0.20 89 992.7
20260904183504 52 30 0.0 0.0 0.00 0.20 0.20 89 992.7
20260904183004 52 30 0.0 0.0 0.00 0.20 0.20 89 992.6
20260904182004 52 30 0.9 2.6 0.00 0.20 0.20 89 992.7
20260904181504 52 30 0.9 2.6 0.00 0.20 0.20 89 992.7
20260904181003 53 30 0.0 0.0 0.00 0.20 0.20 89 992.7
20260904180504 53 30 0.0 0.9 0.00 0.20 0.20 89 992.7
20260904175503 53 356 0.9 2.6 0.00 0.20 0.20 89 992.6
20260904175004 53 0 0.9 6.1 0.00 0.20 0.20 89 992.5
20260904174504 53 336 0.9 2.6 0.00 0.20 0.20 89 992.5
20260904174003 53 351 0.0 0.0 0.00 0.20 0.20 89 992.5
20260904173504 53 351 0.0 0.0 0.00 0.20 0.20 89 992.5
20260904173004 53 351 0.0 0.0 0.00 0.20 0.20 89 992.5
20260904172504 53 351 0.0 0.0 0.00 0.20 0.20 89 992.5
20260904172004 53 351 0.0 0.0 0.00 0.20 0.20 89 992.4
20260904171504 53 351 0.0 0.9 0.00 0.20 0.20 89 992.4
20260904171004 53 351 0.0 0.0 0.00 0.20 0.20 89 992.4
20260904170504 53 351 0.0 0.0 0.00 0.20 0.20 89 992.4
20260904170004 53 351 0.0 0.0 0.00 0.20 0.20 89 992.4
20260904165504 53 351 0.0 0.0 0.00 0.20 0.20 89 992.4
20260904165004 54 351 0.0 0.0 0.00 0.20 0.20 89 992.4
20260904164504 54 351 0.0 0.9 0.00 0.20 0.20 88 992.4
20260904164004 54 351 0.9 2.6 0.00 0.20 0.20 89 992.4
20260904163504 54 351 0.0 0.0 0.00 0.20 0.20 89 992.4
20260904163004 54 351 0.0 0.9 0.00 0.20 0.20 89 992.4
20260904162504 54 351 0.0 0.0 0.00 0.20 0.20 89 992.4
20260904161504 54 351 0.0 0.9 0.00 0.20 0.20 89 992.4
20260904161004 55 348 0.0 0.9 0.00 0.20 0.20 89 992.4
20260904155503 55 345 0.9 2.6 0.01 0.20 0.20 89 992.4
20260904154505 55 331 0.0 0.9 0.02 0.20 0.20 89 992.4
20260904154003 55 331 0.0 0.0 0.02 0.20 0.20 89 992.4
20260904153004 54 331 0.0 0.0 0.02 0.20 0.20 89 992.4
20260904152504 54 331 0.0 0.0 0.02 0.20 0.20 89 992.4
20260904151004 54 331 0.0 0.0 0.02 0.20 0.20 89 992.4
20260904150504 54 331 0.0 2.6 0.02 0.20 0.20 89 992.4
20260904150004 55 330 0.0 2.6 0.02 0.20 0.20 89 992.4
20260904145504 55 313 0.0 0.0 0.01 0.19 0.19 89 992.4
20260904145004 55 313 1.7 2.6 0.00 0.18 0.18 89 992.5
20260904144504 55 315 0.9 2.6 0.01 0.18 0.18 89 992.5
20260904144004 55 334 1.7 4.3 0.01 0.18 0.18 89 992.5
20260904143504 55 16 0.0 2.6 0.01 0.18 0.18 89 992.5
20260904143004 55 21 0.0 2.6 0.01 0.18 0.18 89 992.5
20260904142004 55 23 0.0 0.0 0.01 0.18 0.18 89 992.5
20260904141504 55 23 0.0 0.0 0.01 0.18 0.18 89 992.6
20260904140004 56 23 0.0 1.7 0.01 0.18 0.18 89 992.7
20260904135504 56 23 0.0 1.7 0.01 0.18 0.18 88 992.7
20260904135004 56 26 0.0 0.9 0.01 0.18 0.18 89 992.7
20260904134504 56 26 0.0 0.0 0.00 0.17 0.17 88 992.7
20260904134004 57 26 0.0 0.0 0.00 0.17 0.17 89 992.7
20260904133504 56 26 0.0 0.0 0.01 0.17 0.17 89 992.7
20260904133004 56 24 0.0 0.0 0.01 0.17 0.17 89 992.7
20260904132504 55 25 0.0 1.7 0.02 0.17 0.17 89 992.7
20260904132004 55 25 0.0 0.0 0.04 0.17 0.17 89 992.7
20260904131504 55 25 0.0 0.0 0.05 0.17 0.17 89 992.8
20260904131004 55 25 0.0 0.0 0.05 0.17 0.17 88 992.8
20260904130504 54 25 0.0 0.0 0.05 0.17 0.17 88 992.8
20260904130004 54 25 0.0 0.0 0.05 0.17 0.17 89 992.8
20260904125504 54 25 0.0 0.0 0.05 0.17 0.17 89 992.8
20260904125004 54 25 0.0 0.0 0.05 0.17 0.17 89 992.8
20260904124504 54 25 0.0 0.0 0.05 0.17 0.17 89 992.8
20260904124004 54 25 0.0 0.0 0.05 0.17 0.17 89 992.8
20260904123504 54 25 0.0 0.0 0.04 0.16 0.16 89 992.9
20260904123004 54 20 0.0 0.0 0.04 0.16 0.16 89 993.0
20260904122503 55 20 0.0 2.6 0.04 0.15 0.15 89 992.8
20260904122004 55 20 0.0 1.7 0.04 0.13 0.13 88 993.0
20260904121503 54 20 0.0 0.0 0.05 0.12 0.12 88 992.9
20260904121004 54 20 0.0 0.0 0.10 0.12 0.12 89 992.9
20260904120504 54 20 0.0 0.0 0.12 0.12 0.12 88 993.0
20260904120004 54 20 0.0 0.0 0.12 0.12 0.12 88 993.1
20260904115004 53 20 0.0 0.0 0.12 0.12 0.12 89 993.2
20260904114503 53 20 0.0 0.0 0.12 0.12 0.12 89 993.2
20260904114004 53 20 0.0 0.0 0.12 0.12 0.12 89 993.1
20260904113504 53 20 0.0 0.0 0.12 0.12 0.12 89 993.1
20260904113004 53 20 0.0 0.0 0.12 0.12 0.12 89 993.2
20260904112504 54 20 0.0 0.0 0.11 0.11 0.11 89 993.2
20260904112004 54 20 0.0 0.0 0.09 0.09 0.09 88 993.3
20260904111504 54 20 1.7 4.3 0.07 0.07 0.07 87 993.3
20260904110504 57 331 2.6 7.0 0.00 0.00 0.00 83 993.3
20260904110004 57 55 0.0 1.7 0.00 0.00 0.00 85 993.2
20260904105505 56 55 0.9 2.6 0.00 0.00 0.00 84 993.1
20260904105004 56 55 0.9 2.6 0.00 0.00 0.00 84 993.1
20260904104504 56 55 0.0 0.0 0.00 0.00 0.00 85 993.2
20260904104005 56 55 0.0 0.0 0.00 0.00 0.00 85 993.2
20260904103504 55 55 0.0 0.0 0.00 0.00 0.00 85 993.3
20260904103003 55 55 0.0 2.6 0.00 0.00 0.00 86 993.3
20260904102505 55 55 0.9 2.6 0.00 0.00 0.00 86 993.3
20260904102004 55 55 0.0 2.6 0.00 0.00 0.00 87 993.3
20260904101005 55 55 1.7 4.3 0.00 0.00 0.00 86 993.3
20260904100503 55 57 0.9 2.6 0.00 0.00 0.00 86 993.4
20260904095504 55 57 0.0 1.7 0.00 0.00 0.00 88 993.6
20260904095004 55 57 0.0 0.0 0.00 0.00 0.00 88 993.5
20260904094503 54 57 0.0 0.0 0.00 0.00 0.00 89 993.6
20260904094004 54 57 0.0 0.0 0.00 0.00 0.00 89 993.6
20260904093504 54 57 0.0 0.9 0.00 0.00 0.00 89 993.7
20260904093004 54 57 0.0 0.0 0.00 0.00 0.00 89 993.7
20260904092509 54 57 0.0 0.0 0.00 0.00 0.00 89 993.8
20260904092008 54 57 0.0 0.0 0.00 0.00 0.00 89 993.8
20260904091504 53 57 0.0 0.0 0.00 0.00 0.00 89 993.9
20260904091004 53 57 0.0 0.0 0.00 0.00 0.00 89 993.9
20260904090504 53 57 0.0 0.0 0.00 0.00 0.00 89 993.9
20260904090004 53 57 0.9 1.7 0.00 0.00 0.00 89 993.8
20260904085504 52 57 0.9 1.7 0.00 0.00 0.00 88 993.9
20260904085004 52 57 0.0 0.0 0.00 0.00 0.00 86 993.8
20260904084504 52 57 0.0 0.0 0.00 0.00 0.00 84 993.8
20260904084004 51 57 0.9 1.7 0.00 0.00 0.00 82 993.8
20260904082504 51 57 0.0 2.6 0.00 0.00 0.00 79 993.9
20260904082004 51 57 0.0 0.0 0.00 0.00 0.00 78 993.9
20260904081504 51 57 0.0 1.7 0.00 0.00 0.00 77 993.9
20260904081004 50 57 0.9 2.6 0.00 0.00 0.00 78 993.8
20260904080004 50 57 0.0 0.0 0.00 0.00 0.00 78 993.9
20260904075503 50 57 0.0 0.0 0.00 0.00 0.00 78 993.8
20260904075004 49 57 0.0 0.0 0.00 0.00 0.00 77 993.8
20260904074504 49 57 0.0 0.0 0.00 0.00 0.00 78 993.8
20260904074004 49 57 0.0 0.0 0.00 0.00 0.00 77 993.9
20260904073505 49 58 0.0 1.7 0.00 0.00 0.00 78 993.9
20260904073004 49 58 0.0 1.7 0.00 0.00 0.00 78 993.9
20260904072504 49 58 0.0 0.0 0.00 0.00 0.00 78 993.9
20260904072004 49 58 0.0 0.0 0.00 0.00 0.00 78 993.9
20260904071504 49 58 0.0 0.0 0.00 0.00 0.00 78 993.9
20260904071004 48 58 0.0 0.0 0.00 0.00 0.00 78 993.9
20260904070504 48 58 0.0 0.0 0.00 0.00 0.00 78 993.9
20260904070004 48 58 0.0 0.0 0.00 0.00 0.00 78 993.8
20260904065503 47 58 0.0 0.0 0.00 0.00 0.00 78 993.9
20260904065004 47 58 0.0 0.0 0.00 0.00 0.00 78 994.0
20260904064504 47 58 0.0 0.0 0.00 0.00 0.00 79 994.1
20260904063504 47 58 0.0 0.0 0.00 0.00 0.00 79 994.2
20260904063004 47 58 0.0 0.0 0.00 0.00 0.00 79 994.3
20260904062503 47 58 0.0 0.9 0.00 0.00 0.00 79 994.3
20260904061504 47 59 0.9 2.6 0.00 0.00 0.00 78 994.3
20260904061004 47 65 0.0 2.6 0.00 0.00 0.00 78 994.3
20260904060504 47 67 0.9 2.6 0.00 0.00 0.00 78 994.3
20260904055507 47 74 0.0 0.0 0.00 0.00 0.00 78 994.3
20260904054504 47 76 0.9 2.6 0.00 0.00 0.00 78 994.3
20260904054004 47 77 0.0 0.0 0.00 0.00 0.00 78 994.4
20260904053004 47 77 0.0 0.0 0.00 0.00 0.00 78 994.4
20260904052504 47 77 0.0 0.0 0.00 0.00 0.00 78 994.4
20260904052004 47 77 0.0 0.0 0.00 0.00 0.00 78 994.4
20260904051504 47 77 0.0 0.0 0.00 0.00 0.00 78 994.4
20260904051004 46 79 0.0 0.0 0.00 0.00 0.00 78 994.3
20260904050504 46 79 0.0 0.0 0.00 0.00 0.00 78 994.3
20260904050004 46 79 0.0 0.0 0.00 0.00 0.00 78 994.4
20260904045503 46 79 0.0 0.0 0.00 0.00 0.00 78 994.3
20260904045004 46 79 0.0 0.0 0.00 0.00 0.00 78 994.3
20260904044504 46 79 0.0 0.0 0.00 0.00 0.00 78 994.3
20260904044005 46 79 0.0 0.0 0.00 0.00 0.00 79 994.3
20260904043504 46 79 0.0 0.0 0.00 0.00 0.00 79 994.3
20260904043004 46 79 0.0 0.9 0.00 0.00 0.00 78 994.4
20260904042504 46 79 0.0 0.0 0.00 0.00 0.00 78 994.4
20260904042004 46 79 0.0 0.0 0.00 0.00 0.00 78 994.4
20260904041504 46 79 0.0 0.0 0.00 0.00 0.00 78 994.4
20260904041004 46 79 0.0 0.0 0.00 0.00 0.00 78 994.5
20260904040504 46 79 0.0 0.0 0.00 0.00 0.00 78 994.6
20260904040004 46 79 0.0 0.0 0.00 0.00 0.00 78 994.5
20260904035504 46 79 0.0 0.0 0.00 0.00 0.00 78 994.5
20260904035004 46 79 0.0 0.0 0.00 0.00 0.00 78 994.5
20260904034504 46 79 0.0 0.0 0.00 0.00 0.00 78 994.5
20260904034004 46 79 0.0 0.0 0.00 0.00 0.00 78 994.6
20260904033504 46 79 0.0 0.0 0.00 0.00 0.00 78 994.6
20260904033003 46 79 0.0 0.0 0.00 0.00 0.00 78 994.6
20260904032504 46 79 0.0 0.0 0.00 0.00 0.00 78 994.6
20260904032004 45 79 0.0 0.0 0.00 0.00 0.00 78 994.6
20260904031503 45 79 0.0 0.0 0.00 0.00 0.00 78 994.6
20260904031004 45 79 0.0 0.0 0.00 0.00 0.00 78 994.7
20260904030504 45 79 0.0 0.0 0.00 0.00 0.00 78 994.6
20260904030004 44 79 0.0 0.0 0.00 0.00 0.00 79 994.6
20260904025504 44 79 0.0 0.0 0.00 0.00 0.00 79 994.7
20260904025004 44 79 0.0 0.0 0.00 0.00 0.00 79 994.7
20260904024504 44 79 0.0 0.0 0.00 0.00 0.00 79 994.7
20260904024004 43 79 0.0 0.0 0.00 0.00 0.00 79 994.8
20260904023504 43 79 0.0 0.0 0.00 0.00 0.00 79 994.8
20260904022504 43 79 0.0 0.0 0.00 0.00 0.00 79 994.8
20260904022004 43 79 0.0 0.0 0.00 0.00 0.00 79 994.8
20260904021504 43 79 0.0 0.0 0.00 0.00 0.00 79 994.8
20260904021004 42 79 0.0 0.0 0.00 0.00 0.00 80 994.8
20260904020504 42 79 0.0 0.0 0.00 0.00 0.00 80 994.9
20260904020004 42 79 0.0 0.0 0.00 0.00 0.00 80 994.9
20260904015504 42 79 0.0 0.0 0.00 0.00 0.00 80 995.0
20260904015004 42 79 0.0 0.0 0.00 0.00 0.00 80 994.9
20260904014504 42 79 0.0 0.0 0.00 0.00 0.00 80 994.9
20260904014005 41 79 0.0 0.0 0.00 0.00 0.00 81 994.9
20260904013504 41 79 0.0 0.0 0.00 0.00 0.00 81 995.0
20260904012004 40 79 0.0 0.0 0.00 0.00 0.00 82 995.0
20260904011504 40 79 0.0 0.0 0.00 0.00 0.00 82 995.0
20260904010504 40 79 0.0 0.0 0.00 0.00 0.00 82 995.0
20260904010004 40 79 0.0 0.0 0.00 0.00 0.00 82 995.0
20260904005504 40 79 0.0 0.0 0.00 0.00 0.00 83 995.0
20260904004504 39 79 0.0 0.0 0.00 0.00 0.00 83 995.0
20260904004004 39 79 0.0 0.0 0.00 0.00 0.00 84 995.1
20260904003504 39 79 0.0 0.0 0.00 0.00 0.00 84 995.1
20260904003004 39 79 0.0 0.0 0.00 0.00 0.00 84 995.1
20260904002503 40 79 0.0 0.0 0.00 0.00 0.00 84 995.1
20260904002004 40 79 0.0 0.0 0.00 0.00 0.00 83 995.1
20260904001504 40 79 0.0 0.0 0.00 0.00 0.00 83 995.2
20260904001003 40 79 0.0 0.0 0.00 0.00 0.00 83 995.2
20260904000504 40 79 0.0 0.0 0.00 0.00 0.00 83 995.1
20260904000004 40 79 0.0 0.0 0.00 0.00 0.00 83 995.1
20260903235004 40 79 0.0 0.0 0.00 0.00 0.00 83 995.1
20260903234004 39 79 0.0 0.0 0.00 0.00 0.00 84 995.1
20260903233505 39 79 0.0 0.0 0.00 0.00 0.00 84 995.2
20260903232004 39 79 0.0 0.0 0.00 0.00 0.00 85 995.3
20260903231504 39 79 0.0 0.0 0.00 0.00 0.00 85 995.3
20260903231004 39 79 0.0 0.0 0.00 0.00 0.00 86 995.2
20260903230504 39 79 0.0 0.0 0.00 0.00 0.00 86 995.2
20260903224504 39 79 0.0 0.0 0.00 0.00 0.00 86 995.1
20260903224004 39 79 0.0 0.0 0.00 0.00 0.00 86 995.2
20260903223504 39 79 0.0 0.0 0.00 0.01 0.00 86 995.0
20260903222504 39 79 0.0 0.0 0.00 0.01 0.00 86 995.1
20260903221504 40 79 0.0 0.0 0.00 0.02 0.00 86 995.1
20260903221004 40 79 0.0 0.0 0.00 0.03 0.00 86 995.1
20260903220504 40 79 0.0 0.0 0.00 0.03 0.00 86 995.1
20260903214504 41 79 0.0 0.0 0.00 0.05 0.03 85 995.2
20260903213504 41 79 0.0 0.0 0.00 0.14 0.03 84 995.2
20260903213004 41 79 0.0 0.0 0.00 0.18 0.03 84 995.2
20260903212503 41 79 0.0 0.0 0.00 0.19 0.03 84 995.2
20260903212004 40 79 0.0 0.0 0.00 0.19 0.03 85 995.2
20260903211504 40 79 0.0 0.0 0.00 0.19 0.03 85 995.1
20260903211004 40 79 0.0 0.0 0.00 0.19 0.03 85 995.0
20260903210004 40 79 0.0 0.0 0.00 0.19 0.03 85 995.0
20260903205004 40 79 0.0 0.0 0.00 0.19 0.03 86 995.0
20260903204503 40 79 0.0 0.0 0.00 0.19 0.03 86 995.1
20260903204004 40 79 0.0 0.0 0.00 0.19 0.03 86 995.1
20260903203504 39 79 0.0 0.0 0.00 0.19 0.03 87 995.1
20260903203005 39 79 0.0 0.0 0.00 0.19 0.03 88 995.2
20260903202504 39 79 0.0 0.0 0.00 0.19 0.03 88 995.2
20260903200504 40 79 0.0 0.0 0.00 0.19 0.03 88 995.1
20260903200004 40 79 0.0 0.0 0.00 0.19 0.03 88 995.1
20260903195505 40 79 0.0 0.0 0.00 0.19 0.03 88 995.2
20260903194504 40 79 0.0 0.0 0.00 0.19 0.03 88 995.3
20260903194004 40 79 0.0 0.0 0.00 0.19 0.03 88 995.2
20260903193504 40 79 0.0 0.0 0.00 0.19 0.03 89 995.1
20260903193004 41 79 0.0 0.0 0.00 0.23 0.03 88 995.2
20260903192504 41 79 0.0 0.0 0.00 0.30 0.03 88 995.2
20260903192004 41 79 0.0 0.0 0.00 0.31 0.03 89 995.2
20260903191504 41 79 0.0 0.0 0.00 0.31 0.03 89 995.2
20260903191005 41 79 0.0 0.0 0.00 0.31 0.03 89 995.1
20260903190504 41 79 0.0 0.0 0.00 0.31 0.03 89 995.1
20260903190004 41 79 0.0 0.0 0.00 0.31 0.03 89 995.1
20260903185504 42 79 0.0 0.0 0.00 0.31 0.03 89 995.1
20260903185004 42 79 0.0 0.0 0.00 0.31 0.03 89 995.0